Wind_Speed
31 31 31 31 32 32 33 33 33 32 34 35 36 35 35 37 37 38 39 40 41 43 44 44 44 45 45 45 46 46 47 47 47 49 50 51 52 53 54 55 54 54 54 55
33 32 32 33 33 34 34 35 35 35 35 37 37 37 36 37 38 39 40 41 42 44 44 44 45 45 45 45 45 45 46 46 47 48 48 49 50 51 53 55 54 55 55 55
35 34 34 35 35 35 35 36 36 37 37 37 39 38 36 37 38 39 41 41 42 43 43 44 45 45 44 44 44 45 45 45 45 46 46 47 48 49 50 53 55 56 56 55
36 35 35 36 36 37 37 37 38 38 39 39 40 41 37 37 38 39 40 40 41 42 43 44 44 44 44 43 44 44 44 43 44 45 46 46 46 47 48 51 53 54 55 55
37 37 37 37 37 39 39 39 40 40 41 42 40 43 39 38 38 39 39 40 41 41 42 43 43 43 43 43 43 42 43 43 44 44 45 46 47 48 49 50 52 52 53 54
39 39 39 39 38 39 39 40 41 42 43 43 40 42 42 39 39 39 40 40 41 41 42 42 42 42 42 43 43 42 42 43 43 44 45 46 47 48 49 49 51 51 52 54
40 40 40 40 40 39 39 40 41 43 43 43 42 43 42 41 40 40 40 40 40 41 41 42 42 42 43 43 43 43 43 42 42 43 44 45 46 47 47 47 48 50 51 51
42 42 40 40 40 40 40 39 40 42 44 44 43 43 42 42 42 42 41 40 40 40 41 42 42 42 43 44 44 43 43 43 43 43 44 45 45 45 45 46 47 47 48 49
42 42 42 41 40 40 39 39 39 41 43 44 43 43 42 41 42 42 41 40 41 41 41 41 42 42 42 43 43 43 44 44 42 42 43 44 44 44 44 44 45 45 46 48
42 42 41 41 40 40 39 39 39 40 42 43 43 41 41 40 40 41 41 40 40 41 41 41 42 42 43 43 44 43 44 44 43 43 42 42 42 42 43 44 44 44 45 46
42 43 43 41 40 39 39 40 40 41 41 43 43 41 39 40 40 40 40 40 40 41 41 41 41 42 43 44 44 43 43 43 44 43 40 40 40 40 41 42 43 43 44 45
43 44 44 43 41 40 40 40 40 41 41 42 43 42 38 39 39 40 41 41 41 41 41 41 42 42 43 43 43 43 42 41 42 41 40 39 38 39 40 40 40 41 42 42
42 43 43 43 42 40 40 40 40 41 42 42 43 42 39 39 39 40 41 40 40 40 41 42 42 42 41 41 41 40 39 39 40 40 38 37 38 38 37 37 38 39 39 40
42 43 43 42 41 41 40 39 39 41 42 42 42 41 39 39 39 40 40 40 40 40 41 42 42 41 41 40 40 39 38 39 39 38 37 37 37 37 37 37 37 37 37 37
42 43 43 42 41 42 41 40 40 42 42 43 41 40 39 38 39 40 40 41 41 41 41 42 42 41 40 40 39 39 38 38 38 38 37 36 36 36 36 37 37 37 36 35
43 43 43 43 41 42 43 41 41 41 41 41 41 40 37 38 39 40 41 42 42 42 42 42 42 41 41 40 40 39 37 37 37 37 36 36 36 36 35 36 36 36 36 35
43 43 43 43 42 43 44 40 40 40 40 41 41 39 39 39 39 40 40 41 43 43 43 42 43 41 40 40 39 38 38 38 37 36 35 36 36 36 36 36 35 34 35 34
41 42 43 43 43 44 41 39 39 39 39 39 40 39 40 41 40 40 41 41 42 43 42 42 42 41 40 39 38 38 37 36 35 35 35 34 34 34 34 34 33 33 32 33
40 41 42 43 43 44 40 39 39 39 39 39 40 40 40 40 40 40 40 40 41 42 41 41 41 41 39 37 37 36 35 34 34 34 34 33 32 31 31 31 32 31 31 32
37 38 40 41 41 41 39 39 39 40 41 39 40 40 40 40 40 39 39 39 39 39 39 38 38 37 36 36 36 35 33 32 32 32 31 31 30 29 29 29 29 29 28 28
37 38 38 39 40 40 39 39 38 39 40 39 39 40 40 40 40 38 37 37 38 38 37 36 35 35 34 34 33 33 31 31 30 30 29 28 28 28 28 28 28 28 27 27
37 38 38 38 39 38 37 38 38 39 39 39 39 39 39 39 38 37 36 36 36 36 35 34 33 32 32 32 31 30 29 29 28 27 26 26 25 25 25 25 26 27 27 26
36 36 37 38 37 36 37 37 37 38 39 38 38 38 38 38 37 36 36 36 36 35 34 33 33 32 31 31 30 28 26 26 25 24 24 24 23 23 23 24 25 26 25 25
34 34 35 36 36 36 36 36 37 38 38 38 38 37 37 36 35 35 35 35 35 34 33 32 31 30 28 27 27 26 25 24 23 22 22 22 22 22 22 23 23 24 24 24
32 33 34 34 34 35 35 35 36 37 37 37 37 36 36 35 34 33 33 32 32 31 31 30 29 27 26 25 23 23 22 21 21 21 21 21 21 22 21 21 21 22 21 22
30 33 35 35 34 35 34 34 35 36 36 36 35 34 34 34 33 32 31 31 30 29 28 27 27 26 25 24 23 23 22 22 21 21 21 21 21 21 21 20 20 21 20 20
Wind_Direction
276 277 277 278 278 278 278 278 278 279 278 277 276 275 276 276 276 276 276 276 276 275 274 274 274 274 274 274 273 273 271 270 269 269 267 263 260 257 256 255 254 255 257 256
276 276 277 277 277 278 278 278 279 278 279 279 278 276 276 276 277 278 278 278 278 276 275 275 274 274 275 274 273 274 273 272 271 270 268 265 261 259 256 254 253 256 257 257
275 276 275 276 277 277 278 279 279 279 279 279 279 278 277 277 278 279 279 279 279 278 277 275 274 274 275 274 274 275 275 273 271 270 268 265 262 260 258 256 254 256 257 257
274 275 275 276 277 278 278 278 278 279 280 281 282 282 280 280 280 280 281 281 280 280 278 276 275 275 276 276 276 276 274 273 272 271 269 267 263 260 260 259 258 256 256 256
274 275 275 276 277 277 278 277 278 279 280 281 282 283 283 283 282 281 282 282 281 280 279 277 276 277 277 277 277 277 276 275 275 272 270 267 264 262 261 262 260 259 257 257
273 275 276 276 276 277 278 277 278 278 279 281 283 283 284 285 285 284 283 282 281 280 280 279 277 276 277 277 278 278 278 277 276 273 270 268 266 264 264 264 263 261 258 257
272 273 275 275 276 277 278 278 278 279 280 282 283 284 284 286 286 285 285 283 282 282 281 279 278 278 279 279 280 279 279 277 275 274 272 268 267 265 264 264 264 261 259 257
274 273 274 275 276 277 277 278 279 280 282 283 284 285 286 288 288 287 286 285 284 283 282 280 280 280 280 281 282 281 280 278 275 275 273 269 267 266 265 265 263 262 260 258
274 274 274 275 276 277 277 277 279 280 280 281 283 285 286 288 288 287 287 286 285 285 284 282 281 281 282 282 283 283 281 279 277 276 272 269 267 267 265 265 263 262 261 258
272 274 274 275 275 275 276 277 278 279 281 282 283 285 288 288 289 289 289 288 286 285 285 283 283 282 283 283 284 284 282 278 278 278 273 269 268 267 265 264 264 264 263 259
269 271 272 273 274 276 275 275 276 277 278 281 283 285 286 289 290 289 288 287 285 284 284 284 284 283 284 284 284 284 282 278 276 277 274 272 269 267 268 266 265 264 264 262
268 269 270 272 273 274 275 275 275 275 277 279 281 282 284 286 288 288 287 286 285 285 285 286 287 286 285 284 283 282 281 279 277 276 274 271 269 268 268 267 265 265 264 261
267 268 270 271 272 273 275 275 274 275 275 277 280 282 284 285 285 286 285 285 284 285 286 287 287 287 288 286 283 282 280 278 276 275 274 270 269 268 266 265 264 264 262 260
265 266 268 270 272 272 273 272 273 274 275 277 280 282 282 284 284 284 284 284 284 286 286 286 287 288 288 287 283 281 279 278 277 275 272 270 268 266 264 264 263 263 261 259
263 264 266 267 268 269 270 271 272 274 275 278 280 281 283 282 282 283 283 284 285 286 287 287 287 288 287 284 282 280 280 277 275 274 271 269 267 267 266 264 263 262 261 259
262 264 266 266 267 267 268 269 272 273 275 277 278 280 281 279 280 282 283 283 284 285 286 287 287 287 286 285 282 281 278 276 276 274 272 269 266 266 266 264 263 262 260 258
261 263 265 265 265 266 267 271 272 272 274 276 278 280 280 279 280 281 282 283 284 285 286 286 287 287 285 283 282 280 278 277 276 273 271 269 266 265 264 264 261 261 259 258
261 261 263 264 264 264 269 270 271 272 274 276 277 278 279 280 281 283 284 285 285 285 286 286 287 286 284 282 281 280 279 276 274 273 271 270 267 264 262 262 261 260 257 257
260 261 264 265 266 267 267 269 271 274 276 276 278 279 279 280 281 282 282 283 285 286 286 286 286 285 283 281 281 281 278 275 274 272 270 268 266 264 262 261 258 257 257 257
259 260 263 266 268 269 270 270 272 274 275 275 276 278 279 281 282 282 282 282 284 286 287 286 285 284 282 281 281 280 278 275 273 271 269 266 263 262 260 260 259 256 256 257
261 261 263 266 268 269 270 272 273 274 275 275 276 278 280 282 283 284 284 284 285 286 286 286 285 283 282 282 282 280 278 274 272 270 267 263 261 260 258 256 257 254 254 255
261 263 264 266 267 269 271 272 272 274 275 277 279 280 281 282 283 283 283 284 285 285 284 284 283 282 283 282 281 280 275 272 271 268 266 263 259 258 256 256 257 256 253 253
260 262 264 264 266 267 269 271 273 274 276 277 278 279 281 282 283 282 282 282 283 284 284 283 281 282 282 281 279 277 272 269 268 266 264 262 259 260 258 256 257 255 251 250
260 262 264 264 264 264 266 269 271 273 275 276 277 278 280 281 281 281 281 281 281 281 282 282 281 282 280 276 275 273 269 266 263 261 261 261 261 261 260 256 257 254 251 251
260 261 262 263 263 264 266 268 270 272 274 275 276 277 279 281 280 280 280 280 280 280 280 280 280 280 278 273 271 269 265 262 261 260 261 262 262 261 260 257 255 253 251 253
259 261 262 263 264 266 268 269 270 271 273 274 276 277 279 280 280 279 278 279 280 281 279 278 278 277 275 272 268 267 264 261 259 259 260 261 261 260 257 254 253 250 249 251
Height
5695 5695 5693 5692 5691 5689 5688 5687 5687 5687 5685 5683 5683 5684 5684 5682 5682 5681 5680 5679 5679 5678 5677 5677 5676 5675 5674 5673 5672 5671 5671 5670 5670 5669 5669 5671 5674 5677 5680 5683 5687 5689 5692 5695
5687 5687 5686 5684 5682 5681 5680 5679 5678 5678 5676 5675 5674 5674 5674 5674 5672 5671 5670 5669 5668 5666 5665 5665 5664 5662 5661 5660 5659 5658 5657 5656 5656 5655 5655 5656 5658 5661 5665 5669 5673 5675 5678 5681
5678 5679 5677 5676 5674 5673 5672 5670 5669 5668 5667 5666 5664 5665 5665 5665 5663 5662 5660 5658 5657 5655 5654 5653 5651 5650 5648 5647 5647 5646 5645 5644 5643 5642 5642 5643 5645 5648 5651 5655 5659 5661 5664 5667
5668 5669 5668 5667 5666 5664 5663 5662 5660 5658 5657 5656 5655 5653 5656 5655 5653 5651 5649 5647 5645 5644 5642 5641 5639 5638 5637 5636 5634 5633 5633 5632 5631 5630 5630 5631 5633 5636 5639 5642 5645 5648 5650 5653
5659 5659 5658 5658 5657 5654 5653 5652 5651 5649 5647 5646 5646 5643 5645 5644 5643 5641 5639 5637 5635 5633 5631 5630 5629 5627 5626 5624 5623 5622 5621 5620 5619 5619 5620 5620 5622 5625 5627 5629 5631 5634 5636 5639
5650 5649 5648 5648 5647 5645 5643 5642 5641 5638 5637 5636 5638 5634 5634 5634 5633 5631 5629 5626 5624 5622 5621 5619 5618 5617 5615 5614 5612 5612 5611 5609 5608 5608 5608 5609 5611 5612 5614 5616 5618 5620 5623 5625
5639 5639 5638 5638 5637 5636 5634 5633 5631 5628 5626 5627 5627 5624 5626 5625 5623 5621 5619 5616 5614 5612 5610 5608 5607 5607 5605 5604 5602 5601 5600 5599 5598 5598 5597 5597 5599 5600 5601 5603 5604 5607 5609 5612
5627 5628 5629 5628 5627 5626 5624 5623 5622 5619 5617 5616 5616 5614 5616 5614 5612 5610 5608 5607 5604 5602 5600 5598 5597 5596 5595 5593 5592 5590 5588 5588 5587 5586 5585 5586 5586 5587 5589 5590 5591 5594 5596 5599
5616 5616 5617 5617 5616 5616 5614 5613 5612 5610 5607 5605 5606 5606 5606 5604 5601 5599 5597 5596 5594 5592 5589 5587 5586 5586 5585 5583 5581 5579 5577 5575 5575 5574 5573 5574 5574 5575 5577 5578 5579 5581 5583 5586
5606 5605 5606 5605 5606 5605 5605 5603 5602 5600 5597 5595 5596 5597 5596 5594 5591 5589 5587 5584 5583 5581 5578 5577 5576 5575 5574 5572 5571 5569 5567 5564 5563 5562 5562 5562 5563 5564 5565 5566 5567 5569 5571 5573
5595 5594 5594 5595 5596 5596 5595 5594 5592 5590 5588 5586 5585 5589 5587 5584 5582 5579 5577 5574 5572 5570 5568 5567 5566 5564 5563 5561 5559 5558 5556 5554 5552 5551 5551 5551 5552 5553 5554 5555 5557 5558 5559 5561
5583 5582 5583 5584 5585 5585 5584 5583 5582 5581 5579 5577 5575 5580 5579 5576 5572 5569 5566 5564 5562 5560 5558 5557 5555 5553 5552 5550 5548 5546 5544 5543 5542 5541 5541 5541 5542 5543 5544 5545 5547 5548 5549 5550
5571 5571 5572 5573 5576 5575 5573 5573 5572 5570 5568 5567 5566 5570 5569 5567 5563 5560 5557 5555 5553 5551 5549 5547 5545 5543 5541 5539 5537 5535 5533 5532 5532 5531 5531 5531 5532 5533 5534 5536 5537 5537 5539 5540
5559 5560 5562 5563 5562 5562 5562 5563 5562 5559 5558 5557 5558 5558 5559 5556 5553 5550 5548 5546 5544 5542 5540 5538 5536 5534 5531 5529 5527 5525 5524 5523 5522 5522 5522 5522 5522 5524 5525 5526 5527 5528 5529 5530
5547 5548 5550 5551 5552 5551 5551 5552 5551 5549 5549 5547 5549 5548 5549 5545 5543 5541 5539 5537 5535 5533 5531 5528 5526 5524 5522 5519 5517 5516 5515 5514 5513 5513 5512 5513 5513 5514 5515 5516 5517 5518 5520 5521
5536 5537 5538 5539 5541 5539 5539 5542 5542 5540 5539 5538 5537 5539 5539 5535 5533 5532 5530 5528 5526 5523 5521 5518 5516 5514 5511 5509 5507 5505 5505 5504 5503 5503 5503 5503 5504 5505 5506 5507 5508 5509 5511 5512
5525 5526 5526 5528 5529 5526 5528 5534 5532 5531 5530 5529 5528 5530 5527 5525 5524 5522 5520 5518 5516 5513 5511 5509 5506 5503 5501 5498 5496 5495 5494 5494 5493 5493 5493 5494 5494 5496 5497 5498 5499 5500 5502 5503
5515 5515 5515 5515 5517 5515 5523 5523 5522 5520 5521 5519 5518 5518 5516 5515 5514 5512 5510 5507 5505 5503 5501 5499 5495 5493 5490 5488 5486 5484 5483 5482 5482 5483 5483 5484 5485 5486 5487 5488 5490 5491 5493 5494
5504 5505 5504 5504 5504 5505 5511 5512 5511 5510 5511 5510 5508 5507 5506 5505 5504 5504 5501 5498 5495 5493 5491 5488 5485 5482 5480 5478 5476 5475 5473 5472 5472 5472 5473 5474 5475 5476 5478 5480 5481 5483 5484 5486
5494 5494 5495 5494 5494 5495 5501 5501 5500 5500 5500 5500 5499 5498 5497 5495 5494 5495 5492 5489 5486 5483 5480 5478 5475 5472 5470 5468 5467 5466 5465 5464 5464 5464 5464 5465 5466 5468 5470 5472 5473 5475 5477 5478
5484 5484 5485 5485 5484 5485 5490 5490 5490 5491 5491 5489 5488 5488 5487 5485 5484 5483 5481 5479 5476 5474 5471 5469 5466 5463 5461 5460 5458 5457 5456 5456 5455 5455 5456 5457 5459 5460 5462 5464 5466 5468 5470 5471
5473 5474 5475 5475 5475 5479 5479 5479 5480 5479 5479 5479 5478 5477 5476 5475 5474 5473 5471 5469 5467 5465 5463 5460 5458 5456 5454 5451 5450 5449 5448 5447 5447 5448 5449 5450 5451 5453 5456 5458 5459 5461 5463 5464
5463 5465 5465 5466 5468 5468 5468 5468 5468 5468 5468 5468 5468 5467 5466 5465 5464 5463 5461 5459 5457 5455 5453 5452 5449 5448 5447 5444 5442 5442 5441 5441 5441 5442 5442 5444 5445 5447 5449 5451 5453 5454 5456 5457
5453 5454 5454 5455 5457 5458 5458 5458 5458 5457 5458 5458 5458 5457 5456 5455 5453 5452 5451 5450 5448 5447 5445 5443 5441 5440 5439 5438 5436 5435 5435 5435 5435 5436 5437 5439 5440 5441 5443 5445 5446 5448 5450 5451
5444 5444 5444 5445 5447 5447 5448 5448 5448 5448 5448 5447 5447 5447 5446 5444 5444 5443 5442 5441 5439 5438 5436 5435 5434 5433 5432 5431 5430 5430 5429 5430 5430 5431 5432 5433 5434 5436 5437 5438 5440 5442 5443 5444
5436 5435 5435 5436 5437 5437 5438 5438 5438 5438 5438 5437 5437 5437 5436 5434 5434 5433 5432 5431 5430 5429 5427 5426 5426 5425 5424 5424 5424 5423 5423 5424 5424 5426 5427 5428 5429 5430 5432 5433 5435 5435 5437 5438